Tracking 21612 objects as of 22-Oct-2020
HD Live streaming from Space Station
objects crossing your sky now

STARLINK-1705

Track STARLINK-1705 now!
10-day predictions
STARLINK-1705 is classified as:


NORAD ID: 46579
Int'l Code: 2020-070AZ
Perigee: 358.8 km
Apogee: 360.4 km
Inclination: 53.0 °
Period: 91.6 minutes
Semi major axis: 6730 km
RCS: Unknown
Launch date: October 6, 2020
Source: United States (US)
Launch site: AIR FORCE EASTERN TEST RANGE (AFETR)
aabbcc
Your satellite tracking list
Your tracking list is empty




NASA's NSSDC Master Catalog

Two Line Element Set (TLE):
1 46579U 20070AZ  20296.16667824 -.01101036  00000-0 -91227-2 0  9996
2 46579  52.9893   4.9148 0001223  60.0737 193.6281 15.72254615  3298
Source of the keplerian elements: AFSPC